Home > Weather > Tulkarm > Past weeks

Flag for Palestinian Territories Weather for the Past 2 Weeks in Tulkarm, West Bank, Palestinian Territories

Now
59 °F

Scattered clouds.


Feels Like: 57 °F
Forecast: 50 / 66 °F
Wind: 12 mph from Southwest

Location: Dov Airport

Current Time: Feb 11, 2016 at 11:19:04 AM

Latest Report: Feb 11, 2016 at 10:50 AM


Visibility: N/A

Pressure: 30.24 "Hg

Humidity: 77%

Dew point: 52 °F

Location of TulkarmLocation

Historic Weather in Tulkarm — Graph

°F

Tulkarm Temperature Yesterday

Maximum temperature yesterday: 63 °F (at 11:50 AM)
Minimum temperature yesterday: 50 °F (at 5:50 AM)
Average temperature yesterday: 59 °F

High & Low Weather Summary for the Past Weeks

 TemperatureHumidityPressure
High75 °F (Feb 4, 12:50 PM)94% (Feb 8, 6:50 AM)30.42 "Hg (Feb 8, 6:50 AM)
Low39 °F (Jan 28, 5:50 AM)22% (Feb 4, 12:50 PM)29.89 "Hg (Feb 7, 5:50 AM)
Average57 °F64%30.17 "Hg
* Reported Jan 27 9:50 AM — Feb 11 9:50 AM, Tulkarm, Weather by CustomWeather, © 2016

Note: Actual official high and low records may vary slightly from our data, if they occured in-between our weather recording intervals... More about our weather records

Advertising

Tulkarm Weather History for the Previous 24 Hours

 ConditionsComfort  
Time TempWeatherWind HumidityBarometerVisibility
9:50 AM
Thu, Feb 11
57 °FPartly sunny.6 mph77%30.24 "HgN/A
8:50 AM55 °FPartly sunny.6 mph82%30.24 "HgN/A
7:50 AM54 °FPartly sunny.6 mph88%30.24 "HgN/A
6:50 AM52 °FPassing clouds.7 mph88%30.21 "HgN/A
5:50 AM52 °FPassing clouds.7 mph88%30.21 "HgN/A
10:50 PM
Wed, Feb 10
55 °FPassing clouds.3 mph82%30.15 "HgN/A
9:50 PM55 °FPassing clouds.6 mph82%30.15 "HgN/A
9:00 PM57 °FRain. Passing clouds.5 mph72%30.15 "Hg6 mi
7:50 PM61 °FPassing clouds.6 mph59%30.12 "HgN/A
6:50 PM61 °FPassing clouds.8 mph63%30.12 "HgN/A
5:50 PM59 °FPartly cloudy.7 mph72%30.12 "HgN/A
4:50 PM61 °FScattered clouds.9 mph68%30.09 "HgN/A
3:50 PM61 °FScattered clouds.7 mph63%30.07 "HgN/A
2:50 PM63 °FScattered clouds.9 mph59%30.07 "HgN/A
1:50 PM63 °FPassing clouds.13 mph68%30.07 "HgN/A
12:50 PM63 °FScattered clouds.15 mph68%30.07 "HgN/A
11:50 AM63 °FScattered clouds.8 mph73%30.07 "HgN/A
Weather by CustomWeather, © 2016

See weather overviewHow to use our weather pages